{"data":{"norad_id":58788,"intl_designator":"2024-012B","name":"STARLINK-31185","alt_names":[],"object_type":"PAYLOAD","status":"ACTIVE","operator":null,"country":"US","launch_date":"2024-01-15","launch_site_code":"AFETR","launch_vehicle":null,"mission":null,"orbit_class":"UNKNOWN","rcs_meters":null,"size_class":null,"mass_kg":null,"dimensions":null,"purposes":["comms"],"wikipedia_slug":null,"has_3d_model":false,"image_url":null,"decayed_at":null,"tle_current":{"epoch":"2026-09-19T23:11:26.725056Z","epoch_age_seconds":198709,"freshness":"STALE","line1":"1 58788U 24012B   26262.96628154  .00001221  00000+0  53890-4 0  9998","line2":"2 58788  43.0027 148.4523 0001358 264.1614  95.9083 15.27574974150946","mean_motion":15.27574974,"eccentricity":0.0001358,"inclination_deg":43.0027,"raan_deg":148.4523,"arg_perigee_deg":264.1614,"mean_anomaly_deg":95.9083,"bstar":5.389e-5,"rev_number":15094,"period_min":94.267058868431,"perigee_km":482.13239461742,"apogee_km":483.9958968486,"semimajor_km":6861.201145733,"source":"CELESTRAK","updated_at":"2026-09-21T09:00:33.978935Z"}}}